Weather History for Erzurum, Turkey

Change the Weather History Date:

Thursday, December 12, 2013

  Actual Average Record
Temperature  
Mean Temperature 13 °F -  
Max Temperature 14 °F 29 °F 44 °F (2005)
Min Temperature 12 °F 15 °F -11 °F (2008)
Degree Days  
Heating Degree Days 52    
Moisture  
Dew Point 9 °F    
Average Humidity 82    
Maximum Humidity 97    
Minimum Humidity 70    
Precipitation  
Precipitation 0.00 in 0.03 in - ()
Sea Level Pressure  
Sea Level Pressure 29.73 in    
Wind  
Wind Speed 15 mph ()    
Max Wind Speed 22 mph    
Max Gust Speed -    
Visibility 4.0 miles    
Events Snow    
Averages and records for this station are not official NWS values.
T = Trace of Precipitation, MM = Missing Value Source: Averaged Metar Reports

Daily Weather History Graph

Daily Weather History Graph

Search for Another Location

Airport:

Trip Planner

Search our weather history database for the weather conditions in past years. The results will help you decide how hot, cold, wet, or windy it might be!

Date:

Astronomy

Dec. 12, 2013 Rise Set
Actual Time 6:27 AM EET 3:50 PM EET
Civil Twilight 5:57 AM EET 4:20 PM EET
Nautical Twilight 5:23 AM EET 4:54 PM EET
Astronomical Twilight 4:50 AM EET 5:27 PM EET
Moon 12:45 PM EET (12/12) 1:28 AM EET (12/12)
Length of Visible Light 10h 23m
Length of Day
9h 22m
Waxing Gibbous, 78% of the Moon is Illuminated
Dec 12
Waxing Gibbous
Dec 17
Full
Dec 25
Last Quarter
Jan 1
New
Jan 8
First Quarter

Hourly Weather History & Observations

Time (EET) Temp. Windchill Dew Point Humidity Pressure Visibility Wind Dir Wind Speed Gust Speed Precip Events Conditions
12:20 AM 12.2 °F -1.0 °F 10.4 °F 92% 29.80 in - East 10.4 mph - N/A   Overcast
12:50 AM 12.2 °F -1.0 °F 8.6 °F 85% 29.77 in - East 10.4 mph - N/A   Mostly Cloudy
1:20 AM 12.2 °F -0.2 °F 8.6 °F 85% 29.77 in - East 9.2 mph - N/A   Mostly Cloudy
1:50 AM 12.2 °F -3.1 °F 8.6 °F 85% 29.77 in - ENE 13.8 mph - N/A   Mostly Cloudy
2:00 AM 13 °F - 10 °F 82%  in 3 mi ENE 13.8 mph - -   Mist
2:20 AM 12.2 °F -3.7 °F 8.6 °F 85% 29.77 in - ENE 15.0 mph - N/A   Mostly Cloudy
2:50 AM 12.2 °F -4.3 °F 8.6 °F 85% 29.77 in - ENE 16.1 mph - N/A   Mostly Cloudy
3:20 AM 12.2 °F -5.3 °F 8.6 °F 85% 29.77 in - ENE 18.4 mph - N/A   Mostly Cloudy
3:50 AM 12.2 °F -5.3 °F 6.8 °F 79% 29.77 in - ENE 18.4 mph - N/A   Mostly Cloudy
4:20 AM 12.2 °F -4.8 °F 6.8 °F 79% 29.74 in - ENE 17.3 mph - N/A   Mostly Cloudy
4:50 AM 12.2 °F -5.8 °F 6.8 °F 79% 29.74 in - ENE 19.6 mph - N/A   Mostly Cloudy
5:00 AM 13 °F - 9 °F 75%  in 3 mi ENE 19.6 mph - -   Mist
5:20 AM 12.2 °F -5.8 °F 6.8 °F 79% 29.74 in - ENE 19.6 mph - N/A   Mostly Cloudy
5:50 AM 12.2 °F -5.8 °F 6.8 °F 79% 29.74 in - ENE 19.6 mph - N/A   Mostly Cloudy
6:20 AM 12.2 °F -5.8 °F 6.8 °F 79% 29.74 in - ENE 19.6 mph - N/A   Mostly Cloudy
6:50 AM 12.2 °F -5.8 °F 6.8 °F 79% 29.74 in - ENE 19.6 mph - N/A   Mostly Cloudy
7:20 AM 12.2 °F -6.3 °F 6.8 °F 79% 29.74 in - ENE 20.7 mph - N/A   Mostly Cloudy
7:50 AM 14.0 °F -3.0 °F 6.8 °F 73% 29.74 in 3.7 mi ENE 18.4 mph - N/A   Mostly Cloudy
8:00 AM 13 °F - 8 °F 70%  in 4 mi ENE 18.4 mph - -   Mist
8:20 AM 14.0 °F -3.9 °F 6.8 °F 73% 29.74 in 3.7 mi East 20.7 mph - N/A   Mostly Cloudy
8:50 AM 14.0 °F -3.0 °F 6.8 °F 73% 29.74 in 3.7 mi East 18.4 mph - N/A   Mostly Cloudy
9:20 AM 14.0 °F -4.3 °F 6.8 °F 73% 29.71 in 4.3 mi ENE 21.9 mph - N/A   Mostly Cloudy
9:50 AM 14.0 °F -4.3 °F 6.8 °F 73% 29.71 in 3.7 mi ENE 21.9 mph - N/A   Mostly Cloudy
10:20 AM 14.0 °F -3.9 °F 6.8 °F 73% 29.68 in 4.3 mi ENE 20.7 mph - N/A   Mostly Cloudy
10:50 AM 14.0 °F -4.3 °F 6.8 °F 73% 29.68 in 3.7 mi ENE 21.9 mph - N/A   Mostly Cloudy
11:00 AM 14 °F - 10 °F 75%  in 4 mi ENE 21.9 mph - -   Mist
11:20 AM 14.0 °F -3.4 °F 8.6 °F 79% 29.68 in 2.5 mi ENE 19.6 mph - N/A Snow Light Snow
11:44 AM 14.0 °F -3.4 °F 8.6 °F 79% 29.68 in 1.6 mi ENE 19.6 mph - N/A Snow Light Snow
11:50 AM 14.0 °F -3.0 °F 8.6 °F 79% 29.68 in 1.6 mi ENE 18.4 mph - N/A Snow Light Snow
12:00 PM 12.2 °F -6.3 °F 10.4 °F 92% 29.68 in 0.6 mi ENE 20.7 mph - N/A Snow Snow
12:14 PM 12.2 °F -6.3 °F 10.4 °F 92% 29.68 in 0.6 mi ENE 20.7 mph - N/A Snow Light Snow
12:20 PM 14.0 °F -2.0 °F 10.4 °F 86% 29.68 in 1.2 mi ENE 16.1 mph - N/A Snow Light Snow
12:50 PM 12.2 °F -5.3 °F 10.4 °F 92% 29.68 in 1.2 mi ENE 18.4 mph - N/A Snow Light Snow
1:20 PM 14.0 °F -3.0 °F 10.4 °F 86% 29.68 in 1.6 mi ENE 18.4 mph - N/A Snow Light Snow
1:39 PM 14.0 °F -2.0 °F 10.4 °F 86% 29.65 in - East 16.1 mph - N/A Snow Light Snow
1:50 PM 14.0 °F -2.0 °F 10.4 °F 86% 29.65 in 2.2 mi East 16.1 mph - N/A Snow Light Snow
2:00 PM 14 °F - 11 °F 83%  in 2 mi East 16.1 mph - - Snow Light Snow
2:20 PM 14.0 °F -2.5 °F 10.4 °F 86% 29.68 in 2.2 mi East 17.3 mph - N/A Snow Light Snow
2:50 PM 14.0 °F -2.0 °F 10.4 °F 86% 29.68 in 1.5 mi East 16.1 mph - N/A Snow Light Snow
3:20 PM 14.0 °F -3.0 °F 10.4 °F 86% 29.68 in 1.6 mi East 18.4 mph - N/A Snow Light Snow
3:50 PM 14.0 °F -0.8 °F 10.4 °F 86% 29.68 in 1.1 mi East 13.8 mph - N/A Snow Light Snow
4:20 PM 14.0 °F 0.5 °F 10.4 °F 86% 29.71 in 1.1 mi East 11.5 mph - N/A Snow Light Snow
4:50 PM 14.0 °F -0.2 °F 10.4 °F 86% 29.71 in 1.8 mi ENE 12.7 mph - N/A Snow Light Snow
5:00 PM 13 °F - 13 °F 97%  in 2 mi ENE 12.7 mph - - Snow Light Snow
5:20 PM 12.2 °F -1.8 °F 10.4 °F 92% 29.71 in 3.7 mi ENE 11.5 mph - N/A Snow Light Snow
5:50 PM 14.0 °F 0.5 °F 10.4 °F 86% 29.71 in 3.7 mi East 11.5 mph - N/A Snow Light Snow
6:20 PM 14.0 °F -1.4 °F 8.6 °F 79% 29.71 in 6.2 mi East 15.0 mph - N/A Snow Light Snow
6:50 PM 14.0 °F -0.8 °F 8.6 °F 79% 29.74 in 6.2 mi ENE 13.8 mph - N/A   Mostly Cloudy
7:20 PM 14.0 °F -1.4 °F 8.6 °F 79% 29.74 in 6.2 mi East 15.0 mph - N/A Snow Light Snow
7:50 PM 14.0 °F -0.8 °F 8.6 °F 79% 29.74 in 6.2 mi East 13.8 mph - N/A   Mostly Cloudy
8:00 PM 14 °F - 10 °F 75%  in 12 mi East 13.8 mph - - Snow Light Snow
8:20 PM 12.2 °F -3.1 °F 6.8 °F 79% 29.77 in 6.2 mi East 13.8 mph - N/A   Mostly Cloudy
8:50 PM 14.0 °F -1.4 °F 8.6 °F 79% 29.77 in 6.2 mi East 15.0 mph - N/A   Mostly Cloudy
9:05 PM 12.2 °F -3.7 °F 8.6 °F 85% 29.77 in 6.2 mi East 15.0 mph - N/A Snow Light Snow
9:20 PM 14.0 °F -0.8 °F 8.6 °F 79% 29.77 in 6.2 mi East 13.8 mph - N/A   Mostly Cloudy
9:50 PM 14.0 °F -0.2 °F 8.6 °F 79% 29.80 in 6.2 mi East 12.7 mph - N/A   Mostly Cloudy
10:20 PM 14.0 °F 1.2 °F 10.4 °F 86% 29.80 in 6.2 mi East 10.4 mph - N/A   Mostly Cloudy
10:50 PM 12.2 °F -0.2 °F 8.6 °F 85% 29.80 in 6.2 mi East 9.2 mph - N/A   Mostly Cloudy
11:00 PM 13 °F - 11 °F 89%  in 12 mi East 9.2 mph - -   Partly Cloudy
11:20 PM 12.2 °F -3.1 °F 8.6 °F 85% 29.80 in 6.2 mi East 13.8 mph - N/A   Mostly Cloudy
11:50 PM 12.2 °F -2.5 °F 8.6 °F 85% 29.83 in 6.2 mi East 12.7 mph - N/A   Mostly Cloudy